CLASSIFICA

KNIGHT RACE

MUD RUN KM 15 E KM 9

URBANIA 15707/2018

DIVISIONI:
COMPETITIVA     NON COMPETITIVA     CLASSIFICA:   ASSOLUTA    M     F    
CATEGORIE:   TUTTE    |   13-17(M)   |   18-24(F)   |   18-24(M)   |   25-29(F)   |   25-29(M)   |   30-34(F)   |   30-34(M)   |   35-39(F)   |   35-39(M)   |   40-44(F)   |   40-44(M)   |   45-49(M)   |   50-99(M)  
ALTRO: Classifica Team 
FILTRO:
  Atleta      Team        Pulisci       Atleti classificati COMPETITIVA: 144  

Cliccare sulle colonne per cambiare ordinamento Pagina:   | 1 | | 2 | | 3 |
Pos. M/F Cat. P.Cat. Pett Naz Atleta Squadra Tempo Distacco in tempo Distacco in metri Min/Km braccialetti regione
1125-29(M)1144COLOMBO STEFANOOCR HEROES01:29:10 00:00:00 0 00:05:57 3 -
2225-29(M)2232VINCI MAURIZIOINDIVIDUALE01:29:15 00:00:05 14 00:05:57 3 -
3325-29(M)3178KADIJA RIGERSINFERNO TEAM01:32:47 00:03:37 584 00:06:11 3 -
4425-29(M)4262MAFFEI GIACOMOKNIGHT RACE01:33:30 00:04:20 695 00:06:14 3 R
5530-34(M)1148DALESSANDRO MARCOINFERNO TEAM01:34:25 00:05:15 834 00:06:18 3 -
6618-24(M)1259MORI RICCARDOINFERNO TEAM01:35:31 00:06:21 997 00:06:22 3 -
7730-34(M)2182MACCHIAVELLO CLAUDIOINFERNO TEAM01:38:30 00:09:20 1.421 00:06:34 3 -
8825-29(M)5150DEL PIANO ANDREAINFERNO TEAM01:40:40 00:11:30 1.713 00:06:43 3 -
9930-34(M)3118BERTOLASI MARCOWHITE DONKEYS OCR TEAM01:41:40 00:12:30 1.844 00:06:47 3 -
101030-34(M)4137CATELLANI MIRCOWHITE DONKEYS OCR TEAM01:43:13 00:14:03 2.041 00:06:53 3 -
111130-34(M)5151DEPEDRI RAFFAELEVERONA FORCE RUN ARMY01:45:13 00:16:03 2.288 00:07:01 3 -
121230-34(M)6154DODI FRANCESCOWHITE DONKEYS OCR TEAM01:46:31 00:17:21 2.443 00:07:06 3 -
131335-39(M)1174GORASSO MASSIMOINDIVIDUALE01:46:52 00:17:42 2.484 00:07:08 3 -
141430-34(M)7115BELLODI ANDREAWHITE DONKEYS OCR TEAM01:50:00 00:20:50 2.840 00:07:20 3 -
151518-24(M)2269BELTRAME ALESSIOKNIGHT RACE01:58:31 00:29:21 3.714 00:07:54 3 -
161630-34(M)8175GUERNIERI VALERIOWHITE DONKEYS OCR TEAM01:59:17 00:30:07 3.787 00:07:57 3 -
171725-29(M)6138CAVICCHIOLO LUCA GIUSEPPEANIMALS OCR TEAM01:59:29 00:30:19 3.805 00:07:58 3 -
181830-34(M)9111BANDINI MATTEOINDIVIDUALE01:59:48 00:30:38 3.835 00:07:59 3 -
191930-34(M)10146CRESCENTINI MATTEOINDIVIDUALE02:00:04 00:30:54 3.860 00:08:00 3 R
202030-34(M)11189MOLGORA GABRIELEINDIVIDUALE02:00:18 00:31:08 3.881 00:08:01 3 -
212130-34(M)12112BARALDI DAVIDEWHITE DONKEYS OCR TEAM02:01:10 00:32:00 3.961 00:08:05 3 -
222235-39(M)2229TIBERI ANTONIOINDIVIDUALE02:02:02 00:32:52 4.039 00:08:08 3 R
232345-49(M)1143CINI ROLANDOWELLFIT RUN MUDDERS02:02:07 00:32:57 4.047 00:08:09 3 -
242425-29(M)7158FAVARON FULVIOTEAM AROUND THE WOD02:02:48 00:33:38 4.108 00:08:11 3 -
252535-39(M)3124BONESI SAMUELWHITE DONKEYS OCR TEAM02:03:47 00:34:37 4.194 00:08:15 3 -
262625-29(M)8113BATTAGLIA DINOFARMRUN02:09:34 00:40:24 4.677 00:08:38 3 -
272740-44(M)1166GALLI DARIOTEAM AROUND THE WOD02:14:43 00:45:33 5.071 00:08:59 3 -
282835-39(M)4125BONFANTI ANDREAINDIVIDUALE02:15:54 00:46:44 5.158 00:09:04 3 -
292930-34(M)13235ZAPPA STEFANOWHITE DONKEYS OCR TEAM02:16:51 00:47:41 5.226 00:09:07 3 -
303045-49(M)2140CECCOTTI DANIELEINDIVIDUALE02:18:24 00:49:14 5.335 00:09:14 3 -
313145-49(M)3210RAVIZZA MARCOINDIVIDUALE02:18:38 00:49:28 5.352 00:09:15 3 -
323235-39(M)5164FRATARCANGELI MASSIMOMAXIMUS CROSS RUN02:18:43 00:49:33 5.358 00:09:15 3 -
333325-29(M)9122BONAMICI LUCATEAMFITNESSFORLI02:20:21 00:51:11 5.470 00:09:21 3 -
343440-44(M)2187MASALA ENRICOANIMALS OCR TEAM02:21:29 00:52:19 5.546 00:09:26 3 -
353518-24(M)3177GUIDI GIOELEINDIVIDUALE02:23:58 00:54:48 5.709 00:09:36 3 -
363650-99(M)1103ALVAREZ JOSEINDIVIDUALE02:24:29 00:55:19 5.742 00:09:38 3 -
373718-24(M)4227SPACCAZOCCHI JACOPO BRUNOINDIVIDUALE02:24:41 00:55:31 5.755 00:09:39 3 R
383835-39(M)6217ROTINI ROBERTOINDIVIDUALE02:25:11 00:56:01 5.787 00:09:41 3 -
393940-44(M)3134CARLINI SIMONEFARMRUN02:25:22 00:56:12 5.799 00:09:42 3 -
404030-34(M)14145COPPA FRANCESCOMAXIMUS CROSS RUN02:25:57 00:56:47 5.835 00:09:44 3 -
41118-24(F)1260ZENGA CAROLINFERNO TEAM02:30:57 01:01:47 6.139 00:10:04 3 -
424150-99(M)2180LIGORIO LUIGIANIMALS OCR TEAM02:31:01 01:01:51 6.143 00:10:04 3 -
434225-29(M)10264MARZOLLA ANDREAINDIVIDUALE02:34:39 01:05:29 6.351 00:10:19 3 -
444330-34(M)15268DINI MICHELEKNIGHT RACE02:40:16 01:11:06 6.654 00:10:41 3 -
454435-39(M)7114BELLASSAI GIOVANNIASD CHAOS PRIMORDIALE02:40:19 01:11:09 6.657 00:10:41 3 -
46235-39(F)1240BATTIATI ADELEMAXIMUS CROSS RUN02:43:32 01:14:22 6.821 00:10:54 3 -
47340-44(F)1255PERRONE IDA ANNAWHITE DONKEYS OCR TEAM02:44:24 01:15:14 6.864 00:10:58 3 -
484540-44(M)4225SIRGHI DORINANIS MUDDERS02:44:26 01:15:16 6.866 00:10:58 3 -
49430-34(F)1238BARDELLINI PAOLAINFERNO TEAM02:44:56 01:15:46 6.890 00:11:00 3 -
504618-24(M)5216ROSSI FABIOTEAM AROUND THE WOD02:45:03 01:15:53 6.896 00:11:00 3 -
514725-29(M)11263OGUBUIKE CHIBUIKE RAYMONDASIA WARRIORS TEAM02:45:21 01:16:11 6.911 00:11:01 3 -
524830-34(M)16190MOLINARI ROBERTOINDIVIDUALE02:50:22 01:21:12 7.149 00:11:22 3 -
534935-39(M)8181LONGO OSCARINDIVIDUALE02:50:26 01:21:16 7.152 00:11:22 3 -
545050-99(M)3129CAMPATELLI ROBERTOINDIVIDUALE02:51:22 01:22:12 7.195 00:11:26 3 -
555135-39(M)9149DE PRA JACOPOANIMALS OCR TEAM02:53:02 01:23:52 7.270 00:11:32 3 -
565225-29(M)12192MOSCATELLI MICHELEFARMRUN02:53:34 01:24:24 7.294 00:11:34 3 -
57530-34(F)2252LOVATO DANIELAWHITE DONKEYS OCR TEAM02:55:08 01:25:58 7.362 00:11:41 3 -
585340-44(M)5221SCIRISCIOLI NICOLASUPER RECKLESS02:57:45 01:28:35 7.475 00:11:51 3 -
59640-44(F)2155DOMINICI BARBARAFARMRUN03:01:49 01:32:39 7.643 00:12:07 3 -
605425-29(M)13212RICCI XU MARCOINDIVIDUALE03:05:16 01:36:06 7.780 00:12:21 3 -
615530-34(M)17234ZANZANI MARCOTEAMFITNESSFORLI03:05:42 01:36:32 7.797 00:12:23 3 -
625618-24(M)6153DI TUCCIO FRANCESCOINDIVIDUALE03:07:47 01:38:37 7.877 00:12:31 3 R
635740-44(M)6265CENTI FABRIZIOCROSS RACE03:14:02 01:44:52 8.106 00:12:56 3 -
645813-17(M)1270STEFANI PIETROINDIVIDUALE03:21:52 01:52:42 8.374 00:13:28 3 -
655925-29(M)14193NIGLIATO FEDERICOINDIVIDUALE03:25:59 01:56:49 8.506 00:13:44 3 -
666035-39(M)10276ROSSI MATTIAKNIGHT RACE01:51:18 00:22:08 2.982 00:07:25 2 -
676125-29(M)15261BETTI RICCARDOOCR TEAM ITALY LWT02:10:08 00:40:58 4.722 00:08:41 2 -
686218-24(M)7120BIONDAN MARCOINDIVIDUALE02:18:56 00:49:46 5.373 00:09:16 2 -
696345-49(M)4223SEPE MASSIMILIANOMAXIMUS CROSS RUN02:25:28 00:56:18 5.805 00:09:42 2 -
706440-44(M)7220SANTILLI MIRCOINDIVIDUALE02:28:33 00:59:23 5.996 00:09:54 2 -
716530-34(M)18102ALESIANI STEFANOINDIVIDUALE02:29:07 00:59:57 6.030 00:09:57 2 R
726625-29(M)16127BURANI CRISTIANINDIVIDUALE02:32:11 01:03:01 6.211 00:10:09 2 R
736740-44(M)8230TINI EMANUELEINDIVIDUALE02:32:19 01:03:09 6.218 00:10:09 2 -
746830-34(M)19169GARDINI ANDREATEAMFITNESSFORLI02:33:11 01:04:01 6.268 00:10:13 2 -
756935-39(M)11173GONZALEZ ALEJANDROTEAM AROUND THE WOD02:37:57 01:08:47 6.532 00:10:32 2 -
767018-24(M)8273GERONAZZO RICCARDOKNIGHT RACE02:37:57 01:08:47 6.532 00:10:32 2 -
777125-29(M)17201PARDINI ALESSANDROINDIVIDUALE02:51:59 01:22:49 7.223 00:11:28 2 -
787245-49(M)5185MARINI ALESSANDROANIMALS OCR TEAM02:53:55 01:24:45 7.309 00:11:36 2 -
797335-39(M)12109APPOGGI SIMONEINDIVIDUALE02:54:27 01:25:17 7.333 00:11:38 2 -
807440-44(M)9106AMBROSINI MIRCOSUPER RECKLESS02:54:40 01:25:30 7.342 00:11:39 2 -
81718-24(F)2245COLABIANCHI ELENAMAXIMUS CROSS RUN02:55:03 01:25:53 7.359 00:11:40 2 -
82835-39(F)2242BELLOMI LAURAANIMALS OCR TEAM02:55:07 01:25:57 7.362 00:11:41 2 -
837540-44(M)10275LACERENZA EMANUELEINDIVIDUALE02:56:25 01:27:15 7.418 00:11:46 2 -
847645-49(M)6266DI SIENA GIANLUCAINDIVIDUALE03:06:57 01:37:47 7.845 00:12:28 2 -
857725-29(M)18209RAVICINI GUIDOINDIVIDUALE03:08:33 01:39:23 7.906 00:12:34 2 -
86918-24(F)3274TRENTA ANNAKNIGHT RACE03:13:51 01:44:41 8.100 00:12:55 2 R
877835-39(M)13165GALLESI LUCAINDIVIDUALE03:15:25 01:46:15 8.155 00:13:02 2 -
887950-99(M)4184MARABINI ROBERTOCUS INSUBRIA EOLO03:16:39 01:47:29 8.198 00:13:07 2 -
898050-99(M)5228STEFANI MARCOINDIVIDUALE03:21:52 01:52:42 8.374 00:13:28 2 -
908145-49(M)7171GIAVOLUCCI GIUSEPPEOCR TEAM ITALY LWT03:22:06 01:52:56 8.381 00:13:28 2 -
918225-29(M)19168GARDINI ALEXTEAMFITNESSFORLI03:29:26 02:00:16 8.613 00:13:58 2 -
928345-49(M)8132CAPONERI GIANLEONARDOINDIVIDUALE03:31:08 02:01:58 8.665 00:14:05 2 -
938425-29(M)20208RANIERI LUCATEAMFITNESSFORLI03:31:37 02:02:27 8.679 00:14:07 2 -
948525-29(M)21206RADICATI MARCOINDIVIDUALE03:32:47 02:03:37 8.714 00:14:11 2 R
958630-34(M)20207RAHIM VALERIOASD CHAOS PRIMORDIALE03:34:36 02:05:26 8.767 00:14:18 2 -
968735-39(M)14244CICCARELLO MAUROASD CHAOS PRIMORDIALE03:34:36 02:05:26 8.767 00:14:18 2 -
978825-29(M)22188MIGNOGNA ALESSANDROINDIVIDUALE03:35:39 02:06:29 8.797 00:14:23 2 -
988930-34(M)21215RONCHI LEANDROINDIVIDUALE03:37:30 02:08:20 8.850 00:14:30 2 -
999035-39(M)15101AGOSTINI ANDREARWR TEAM02:18:28 00:49:18 5.340 00:09:14 1 -
1009145-49(M)9156DONATELLI GIUSEPPEINDIVIDUALE02:19:02 00:49:52 5.380 00:09:16 1 R
1019225-29(M)23104AMADUCCI LUCATEAMFITNESSFORLI02:25:46 00:56:36 5.824 00:09:43 1 -
1029330-34(M)22218RUOCCO ROBERTOINDIVIDUALE02:26:12 00:57:02 5.851 00:09:45 1 -
1039435-39(M)16271ROSSI DAVIDINDIVIDUALE02:27:25 00:58:15 5.927 00:09:50 1 -
1049540-44(M)11195OLMI DAMIANOINDIVIDUALE02:27:42 00:58:32 5.944 00:09:51 1 R
1059640-44(M)12258BELLANCINI DENNISINDIVIDUALE02:29:46 01:00:36 6.069 00:09:59 1 -
1069745-49(M)10219SAMBUCHI FABIOSUPER RECKLESS02:29:54 01:00:44 6.077 00:10:00 1 R
1079830-34(M)23163FRANCHI MARCOINDIVIDUALE02:30:15 01:01:05 6.098 00:10:01 1 -
1089945-49(M)11267MULAZZANI GIANLUCAKNIGHT RACE02:30:29 01:01:19 6.111 00:10:02 1 -
10910035-39(M)17202PENOTTI SEBASTIANINDIVIDUALE02:30:37 01:01:27 6.119 00:10:03 1 -
11010135-39(M)18133CARDINI LUCIANOINDIVIDUALE02:32:12 01:03:02 6.212 00:10:09 1 R
11110230-34(M)24161FIORE ANTONIOINDIVIDUALE02:32:38 01:03:28 6.237 00:10:11 1 -
11210350-99(M)6105AMATORI ROBERTOINDIVIDUALE02:32:53 01:03:43 6.251 00:10:12 1 -
11310435-39(M)19186MARINONI CHRISTIANINDIVIDUALE02:36:44 01:07:34 6.466 00:10:27 1 -
11410535-39(M)20119BERTOZZI DAVIDERWR TEAM02:40:06 01:10:56 6.645 00:10:40 1 -
11510635-39(M)21107ANDREOTTI GIACOMOINDIVIDUALE02:40:45 01:11:35 6.679 00:10:43 1 -
11610745-49(M)12130CANESTRARI GIAN LUCARWR TEAM02:45:34 01:16:24 6.921 00:11:02 1 -
11710845-49(M)13139CECARINI RUDYINDIVIDUALE02:46:01 01:16:51 6.943 00:11:04 1 -
11810925-29(M)24194ODINELLI MATTEOTEAMFITNESSFORLI02:54:00 01:24:50 7.313 00:11:36 1 -
11911030-34(M)25126BRESCINI GABRIELEKNIGHT RACE02:55:45 01:26:35 7.389 00:11:43 1 R
12011140-44(M)13167GAMBERINI LUCARWR TEAM03:08:06 01:38:56 7.889 00:12:32 1 -
12111235-39(M)22157FANĚ DIEGOINDIVIDUALE03:08:33 01:39:23 7.906 00:12:34 1 -
1221025-29(F)1249GAROFALO CLAUDIAASD CHAOS PRIMORDIALE03:10:13 01:41:03 7.968 00:12:41 1 -
12311340-44(M)14128CALLEGARI ENRICOTKT PARMA03:13:02 01:43:52 8.071 00:12:52 1 -
12411430-34(M)26213ROCCASALVO GUGLIELMOASD CHAOS PRIMORDIALE02:14:53 00:45:43 5.084 00:09:00 0 -
12511530-34(M)27123BONDI ENRICOINDIVIDUALE02:32:07 01:02:57 6.207 00:10:09 0 -
12611640-44(M)15170GASPARRI FABIOINDIVIDUALE02:32:23 01:03:13 6.222 00:10:10 0 R
12711730-34(M)28204PETROCCHI GIOVANNIASD CHAOS PRIMORDIALE02:40:20 01:11:10 6.658 00:10:41 0 -
12811840-44(M)16108APA MASSIMILIANOINDIVIDUALE02:44:31 01:15:21 6.870 00:10:58 0 -
12911918-24(M)9162FLORI GIOVANNIRWR TEAM02:45:38 01:16:28 6.924 00:11:03 0 R
13012045-49(M)14224SGARAMELLA VINCENZOINDIVIDUALE02:46:01 01:16:51 6.943 00:11:04 0 -
13112135-39(M)23160FERRI ALESSANDRORWR TEAM02:49:31 01:20:21 7.109 00:11:18 0 R
13212235-39(M)24191MORGAGNI MARCOTEAMFITNESSFORLI02:59:25 01:30:15 7.545 00:11:58 0 -
13312325-29(M)25196OTTAVIANI LUCACROSSFIT BELLARIA03:09:09 01:39:59 7.928 00:12:37 0 -
13412445-49(M)15203PERILLO FRANCESCOASD CHAOS PRIMORDIALE03:11:22 01:42:12 8.010 00:12:46 0 -
1351135-39(F)3243CAPRIO SAMANTHAASD CHAOS PRIMORDIALE03:11:40 01:42:30 8.021 00:12:47 0 -
13612540-44(M)17179LA GIOIA ANDREAINDIVIDUALE03:14:27 01:45:17 8.121 00:12:58 0 -
13712630-34(M)29199PAPINI ANDREAINDIVIDUALE03:14:41 01:45:31 8.129 00:12:59 0 -
1381235-39(F)4254PASSERI MILENAINDIVIDUALE03:17:02 01:47:52 8.211 00:13:08 0 R
1391325-29(F)2236AGRESTI SILVIAASD CHAOS PRIMORDIALE03:31:32 02:02:22 8.677 00:14:06 0 -
14012735-39(M)25205PINTUS DANIELEASD CHAOS PRIMORDIALE03:39:24 02:10:14 8.903 00:14:38 0 -
14112835-39(M)26222SELLERI STEFANOTEAMFITNESSFORLI03:48:35 02:19:25 9.148 00:15:14 0 -
14212930-34(M)30226SOZZI GIANPIETROINDIVIDUALE03:49:49 02:20:39 9.180 00:15:19 0 -
1431430-34(F)3241BELLOMI FRANCESCAINDIVIDUALE03:52:13 02:23:03 9.240 00:15:29 0 -
1441530-34(F)4248FERRETTI ELEONORAINDIVIDUALE03:58:55 02:29:45 9.401 00:15:56 0 -
Righe per pagina::     TUTTE    |   30   |   50   |   100   Pagina:   | 1 | | 2 | | 3 |